TimeEDT,TemperatureF,Dew PointF,Humidity,Sea Level PressureIn,VisibilityMPH,Wind Direction,Wind SpeedMPH,Gust SpeedMPH,PrecipitationIn,Events,Conditions,WindDirDegrees,DateUTC
12:51 AM,62.1,55.0,78,30.11,10.0,ENE,6.9,-,N/A,,Overcast,70,2013-05-08 04:51:00
1:51 AM,60.1,55.0,83,30.08,10.0,Variable,4.6,-,N/A,,Overcast,0,2013-05-08 05:51:00
2:37 AM,60.1,55.9,86,30.10,10.0,Variable,4.6,-,0.00,,Mostly Cloudy,0,2013-05-08 06:37:00
2:51 AM,59.0,55.9,90,30.07,4.0,East,5.8,-,0.02,Rain,Rain,90,2013-05-08 06:51:00
3:07 AM,57.9,55.9,93,30.11,1.8,East,4.6,-,0.06,Rain,Heavy Rain,80,2013-05-08 07:07:00
3:20 AM,57.9,55.9,93,30.11,2.5,ENE,5.8,-,0.11,Rain,Rain,60,2013-05-08 07:20:00
3:30 AM,57.9,55.9,93,30.11,1.0,ENE,4.6,-,0.20,Rain,Heavy Rain,70,2013-05-08 07:30:00
3:40 AM,57.9,55.9,93,30.10,2.0,NE,8.1,-,0.27,Rain,Rain,50,2013-05-08 07:40:00
3:47 AM,57.2,55.4,94,30.08,2.0,ENE,5.8,-,0.30,Rain,Rain,60,2013-05-08 07:47:00
3:51 AM,57.9,55.9,93,30.06,2.0,ENE,6.9,-,0.31,Rain,Heavy Rain,70,2013-05-08 07:51:00
3:59 AM,57.9,57.0,97,30.09,1.8,ENE,5.8,-,0.04,Rain,Rain,60,2013-05-08 07:59:00
4:06 AM,57.9,57.0,97,30.09,2.0,ENE,6.9,-,0.07,Rain,Rain,70,2013-05-08 08:06:00
4:17 AM,57.9,57.0,97,30.08,4.0,East,5.8,-,0.09,Rain,Light Rain,80,2013-05-08 08:17:00
4:20 AM,57.9,57.0,97,30.08,4.0,Variable,5.8,-,0.09,Rain,Light Rain,0,2013-05-08 08:20:00
4:41 AM,57.9,57.0,97,30.07,2.0,ENE,5.8,-,0.13,Rain,Heavy Rain,70,2013-05-08 08:41:00
4:51 AM,57.9,55.9,93,30.04,2.0,ENE,9.2,-,0.19,Rain,Heavy Rain,70,2013-05-08 08:51:00
5:11 AM,57.9,55.9,93,30.06,3.0,Variable,6.9,-,0.04,Rain,Rain,0,2013-05-08 09:11:00
5:20 AM,57.0,55.9,96,30.08,2.5,Variable,3.5,-,0.07,Rain,Rain,0,2013-05-08 09:20:00
5:28 AM,57.0,55.9,96,30.08,3.0,East,6.9,-,0.08,Rain,Light Rain,80,2013-05-08 09:28:00
5:42 AM,57.0,55.9,96,30.08,1.8,East,3.5,-,0.13,Rain,Heavy Rain,80,2013-05-08 09:42:00
5:51 AM,57.0,55.9,96,30.06,2.0,ENE,3.5,-,0.17,Rain,Heavy Rain,70,2013-05-08 09:51:00
6:35 AM,57.0,55.9,96,30.09,2.5,ENE,9.2,-,0.15,Rain,Rain,70,2013-05-08 10:35:00
6:51 AM,57.0,55.9,96,30.08,1.8,East,6.9,-,0.25,Rain,Heavy Rain,90,2013-05-08 10:51:00
7:06 AM,57.0,55.9,96,30.10,2.0,ENE,6.9,-,0.08,Rain,Heavy Rain,70,2013-05-08 11:06:00
7:14 AM,57.0,55.9,96,30.10,1.8,ENE,4.6,-,0.13,Rain,Heavy Rain,60,2013-05-08 11:14:00
7:22 AM,57.0,55.9,96,30.10,2.0,Variable,4.6,-,0.16,Rain,Rain,0,2013-05-08 11:22:00
7:30 AM,57.9,55.9,93,30.09,1.5,Variable,5.8,-,0.22,Rain,Heavy Rain,0,2013-05-08 11:30:00
7:40 AM,57.0,55.9,96,30.09,2.5,ENE,5.8,-,0.26,Rain,Rain,70,2013-05-08 11:40:00
7:51 AM,57.9,55.9,93,30.06,1.8,NE,8.1,-,0.34,Rain,Heavy Rain,40,2013-05-08 11:51:00
8:13 AM,57.0,55.9,96,30.12,0.2,Variable,3.5,-,0.45,Fog-Rain,Heavy Rain,0,2013-05-08 12:13:00
8:19 AM,57.0,55.9,96,30.11,0.2,ENE,5.8,-,0.67,Fog-Rain,Heavy Rain,60,2013-05-08 12:19:00
8:42 AM,57.9,55.9,93,30.11,1.0,NE,6.9,-,0.94,Rain,Heavy Rain,50,2013-05-08 12:42:00
8:51 AM,57.0,55.9,96,30.09,0.5,ENE,9.2,-,1.06,Fog-Rain,Heavy Rain,60,2013-05-08 12:51:00
9:00 AM,57.0,55.9,96,30.10,2.0,ENE,8.1,-,0.04,Rain,Light Rain,60,2013-05-08 13:00:00
9:08 AM,57.9,57.0,97,30.10,7.0,NE,8.1,-,0.05,,Overcast,50,2013-05-08 13:08:00
9:39 AM,57.9,55.9,93,30.10,9.0,Variable,5.8,-,0.05,,Overcast,0,2013-05-08 13:39:00
9:51 AM,57.9,57.0,97,30.07,9.0,ENE,6.9,-,0.05,,Overcast,60,2013-05-08 13:51:00
10:33 AM,61.0,59.0,93,30.09,8.0,ENE,9.2,-,N/A,,Overcast,60,2013-05-08 14:33:00
10:51 AM,62.1,57.9,86,30.07,9.0,ENE,8.1,-,N/A,,Overcast,60,2013-05-08 14:51:00
11:14 AM,62.1,57.9,86,30.09,10.0,ESE,5.8,-,N/A,,Overcast,110,2013-05-08 15:14:00
11:29 AM,62.1,57.9,86,30.08,9.0,NE,6.9,-,N/A,,Overcast,50,2013-05-08 15:29:00
11:36 AM,62.1,57.9,86,30.07,9.0,Variable,6.9,-,N/A,,Overcast,0,2013-05-08 15:36:00
11:51 AM,62.1,57.9,86,30.04,9.0,ENE,9.2,-,N/A,,Overcast,70,2013-05-08 15:51:00
12:09 PM,61.0,57.9,90,30.04,2.0,East,9.2,-,0.00,Rain,Heavy Rain,80,2013-05-08 16:09:00
12:14 PM,60.1,57.9,93,30.03,0.8,ENE,5.8,-,0.06,Rain,Heavy Rain,60,2013-05-08 16:14:00
12:22 PM,60.1,59.0,96,30.03,2.0,ENE,9.2,-,0.09,Rain,Light Rain,60,2013-05-08 16:22:00
12:30 PM,60.1,59.0,96,30.02,4.0,ENE,8.1,-,0.09,Rain,Light Rain,70,2013-05-08 16:30:00
12:35 PM,60.1,59.0,96,30.02,1.5,Variable,5.8,-,0.09,Rain,Light Rain,0,2013-05-08 16:35:00
12:51 PM,60.1,59.0,96,29.99,0.2,East,9.2,-,0.37,Fog-Rain,Heavy Rain,80,2013-05-08 16:51:00
1:16 PM,59.0,57.0,93,30.04,1.5,Variable,3.5,-,0.24,Rain,Light Rain,0,2013-05-08 17:16:00
1:36 PM,59.0,57.9,96,30.04,1.2,Variable,3.5,-,0.25,Rain,Light Rain,0,2013-05-08 17:36:00
1:49 PM,60.8,57.2,88,30.04,2.5,Variable,3.5,-,0.26,,Overcast,0,2013-05-08 17:49:00
1:51 PM,60.1,59.0,96,30.01,2.5,Variable,5.8,-,0.26,,Overcast,0,2013-05-08 17:51:00
2:03 PM,61.0,59.0,93,30.03,1.5,Variable,5.8,-,N/A,,Overcast,0,2013-05-08 18:03:00
2:17 PM,60.1,59.0,96,30.02,2.0,SSE,8.1,-,N/A,,Overcast,160,2013-05-08 18:17:00
2:51 PM,61.0,59.0,93,30.00,2.5,South,6.9,-,N/A,,Overcast,170,2013-05-08 18:51:00
3:03 PM,61.0,59.0,93,30.02,3.0,SSE,5.8,-,N/A,,Overcast,160,2013-05-08 19:03:00
3:11 PM,61.0,59.0,93,30.02,2.5,Calm,Calm,-,N/A,,Overcast,0,2013-05-08 19:11:00
3:20 PM,62.1,59.0,90,30.02,3.0,Calm,Calm,-,N/A,,Overcast,0,2013-05-08 19:20:00
3:35 PM,63.0,60.1,90,30.02,5.0,Variable,3.5,-,N/A,,Overcast,0,2013-05-08 19:35:00
3:51 PM,62.1,59.0,90,29.99,4.0,Calm,Calm,-,N/A,,Overcast,0,2013-05-08 19:51:00
4:51 PM,61.0,57.9,90,29.98,5.0,Calm,Calm,-,N/A,,Mostly Cloudy,0,2013-05-08 20:51:00
5:01 PM,61.0,57.9,90,30.01,5.0,Variable,3.5,-,N/A,,Mostly Cloudy,0,2013-05-08 21:01:00
5:51 PM,62.1,57.9,86,29.99,8.0,Variable,3.5,-,N/A,,Mostly Cloudy,0,2013-05-08 21:51:00
6:51 PM,59.0,55.0,87,29.99,10.0,Calm,Calm,-,N/A,,Clear,0,2013-05-08 22:51:00
7:51 PM,57.9,52.0,81,30.00,10.0,Variable,4.6,-,N/A,,Clear,0,2013-05-08 23:51:00
8:51 PM,57.0,51.1,81,30.01,10.0,Variable,5.8,-,N/A,,Clear,0,2013-05-09 00:51:00
9:51 PM,57.0,51.1,81,30.02,10.0,Variable,4.6,-,N/A,,Clear,0,2013-05-09 01:51:00
10:51 PM,57.0,51.1,81,30.02,10.0,Variable,3.5,-,N/A,,Clear,0,2013-05-09 02:51:00
11:51 PM,55.9,52.0,87,30.01,10.0,East,3.5,-,N/A,,Clear,100,2013-05-09 03:51:00